Hettinger, ND

6:27 AM MDT on April 26, 2017 (GMT -0600)
Hettinger Municipal

Weather History for KHEI - January, 2013

Change the Weather History Date:

Wednesday, January 2, 2013

  Actual Average Record
Temperature  
Mean Temperature 23 °F -  
Max Temperature 28 °F 28 °F 48 °F (2007)
Min Temperature 17 °F 5 °F -15 °F (1999)
Degree Days  
Heating Degree Days 42 49  
Month to date heating degree days 96 98  
Since 1 July heating degree days 3529 3677  
Moisture  
Dew Point 18 °F    
Average Humidity 79    
Maximum Humidity 88    
Minimum Humidity 67    
Precipitation  
Precipitation T in 0.02 in 0.04 in (2000)
Month to date precipitation T 0.03  
Year to date precipitation T 0.03  
Sea Level Pressure  
Sea Level Pressure 30.13 in    
Wind  
Wind Speed 18 mph (NW)    
Max Wind Speed 29 mph    
Max Gust Speed 37 mph    
Visibility 8 miles    
Events Snow    
T = Trace of Precipitation, MM = Missing Value Source: NWS Daily Summary

Daily Weather History Graph

Daily Weather History Graph

Search for Another Location

Airport or City:

Trip Planner

Search our weather history database for the weather conditions in past years. The results will help you decide how hot, cold, wet, or windy it might be!

Date:

Astronomy

Jan. 02, 2013 Rise Set
Actual Time 7:32 AM MST 4:17 PM MST
Civil Twilight 6:58 AM MST 4:51 PM MST
Nautical Twilight 6:20 AM MST 5:29 PM MST
Astronomical Twilight 5:44 AM MST 6:05 PM MST
Moon 10:11 PM MST (1/2) 9:57 AM MST (1/2)
Length of Visible Light 9h 53m
Length of Day
8h 44m
Waning Gibbous, 74% of the Moon is Illuminated
Jan 2
Waning Gibbous
Jan 4
Last Quarter
Jan 11
New
Jan 18
First Quarter
Jan 26
Full

Hourly Weather History & Observations

Time (MST) Temp. Windchill Dew Point Humidity Pressure Visibility Wind Dir Wind Speed Gust Speed Precip Events Conditions
12:53 AM 27.0 °F 12.8 °F 21.9 °F 81% 30.05 in 10.0 mi NW 21.9 mph - N/A   Overcast
1:53 AM 27.0 °F 12.2 °F 21.0 °F 78% 30.06 in 10.0 mi NW 24.2 mph 32.2 mph N/A   Overcast
2:34 AM 26.6 °F 12.4 °F 21.2 °F 80% 29.97 in 10.0 mi NW 21.9 mph - N/A   Overcast
2:41 AM 26.6 °F 12.7 °F 21.2 °F 80% 29.97 in 10.0 mi NW 20.7 mph 28.8 mph N/A   Overcast
2:51 AM 26.6 °F 12.4 °F 21.2 °F 80% 29.98 in 10.0 mi NW 21.9 mph 29.9 mph N/A   Overcast
2:53 AM 26.1 °F 12.0 °F 21.9 °F 84% 30.08 in 10.0 mi NW 20.7 mph 29.9 mph N/A   Overcast
3:53 AM 26.1 °F 12.0 °F 21.0 °F 81% 30.09 in 10.0 mi WNW 20.7 mph 28.8 mph N/A   Overcast
4:53 AM 25.0 °F 10.2 °F 21.0 °F 85% 30.09 in 10.0 mi NW 21.9 mph 28.8 mph N/A   Overcast
5:53 AM 25.0 °F 10.9 °F 21.0 °F 85% 30.09 in 10.0 mi NW 19.6 mph 31.1 mph N/A   Overcast
6:30 AM 24.8 °F 10.3 °F 19.4 °F 80% 29.99 in 10.0 mi WNW 20.7 mph - N/A   Overcast
6:53 AM 25.0 °F 9.9 °F 19.9 °F 81% 30.09 in 10.0 mi WNW 23.0 mph 31.1 mph N/A   Overcast
7:26 AM 24.8 °F 10.3 °F 19.4 °F 80% 29.98 in 10.0 mi WNW 20.7 mph 25.3 mph N/A   Overcast
8:53 AM 24.1 °F 10.6 °F 18.0 °F 77% 30.10 in 10.0 mi WNW 17.3 mph - 0.00 in   Mostly Cloudy
9:53 AM 24.1 °F 8.7 °F 16.0 °F 71% 30.12 in 10.0 mi WNW 23.0 mph 27.6 mph N/A   Overcast
10:19 AM 24.8 °F 9.6 °F 17.6 °F 74% 30.02 in 10.0 mi WNW 23.0 mph 31.1 mph N/A   Overcast
10:53 AM 24.1 °F 9.8 °F 17.1 °F 75% 30.13 in 9.0 mi NW 19.6 mph 32.2 mph 0.00 in   Overcast
11:08 AM 23.0 °F 6.9 °F 17.6 °F 80% 30.03 in 1.8 mi NW 24.2 mph 32.2 mph 0.00 in Snow Light Snow
11:20 AM 23.0 °F 7.6 °F 17.6 °F 80% 30.03 in 0.8 mi NW 21.9 mph - 0.00 in Snow Light Snow
11:50 AM 23.0 °F 6.9 °F 17.6 °F 80% 30.03 in 1.0 mi NW 24.2 mph 32.2 mph 0.00 in Snow Light Snow
11:53 AM 23.0 °F 6.9 °F 18.0 °F 81% 30.13 in 1.2 mi NW 24.2 mph 33.4 mph 0.00 in Snow Light Snow
12:29 PM 21.2 °F 5.6 °F 17.6 °F 86% 30.03 in 3.0 mi NW 20.7 mph 29.9 mph 0.00 in Snow Light Snow
12:36 PM 23.0 °F 7.2 °F 17.6 °F 80% 30.04 in 7.0 mi NW 23.0 mph - 0.00 in Snow Light Snow
12:49 PM 24.8 °F 10.3 °F 17.6 °F 74% 30.04 in 4.0 mi NW 20.7 mph 32.2 mph 0.00 in Snow Light Snow
12:53 PM 24.1 °F 8.7 °F 18.0 °F 77% 30.15 in 3.0 mi NW 23.0 mph 32.2 mph 0.00 in Snow Light Snow
1:34 PM 23.0 °F 7.2 °F 17.6 °F 80% 30.06 in 5.0 mi NW 23.0 mph - 0.00 in Snow Light Snow
1:53 PM 23.0 °F 6.3 °F 18.0 °F 81% 30.17 in 5.0 mi NW 26.5 mph 32.2 mph 0.00 in Snow Light Snow
2:53 PM 23.0 °F 7.2 °F 18.0 °F 81% 30.20 in 10.0 mi NW 23.0 mph 28.8 mph 0.00 in   Overcast
3:11 PM 23.0 °F 7.2 °F 17.6 °F 80% 30.10 in 10.0 mi NW 23.0 mph 29.9 mph N/A   Overcast
3:53 PM 23.0 °F 8.0 °F 17.1 °F 78% 30.24 in 10.0 mi NW 20.7 mph - N/A   Overcast
4:53 PM 21.0 °F 7.6 °F 15.1 °F 78% 30.28 in 10.0 mi NW 15.0 mph - N/A   Overcast
5:53 PM 21.0 °F 7.6 °F 15.1 °F 78% 30.30 in 10.0 mi NW 15.0 mph - N/A   Overcast
6:18 PM 17.6 °F 5.7 °F 12.2 °F 79% 30.19 in 10.0 mi NW 10.4 mph - N/A   Mostly Cloudy
6:30 PM 19.4 °F 6.0 °F 12.2 °F 74% 30.20 in 10.0 mi NW 13.8 mph - N/A   Mostly Cloudy
6:53 PM 19.9 °F 7.3 °F 14.0 °F 78% 30.32 in 10.0 mi NW 12.7 mph - N/A   Overcast
7:53 PM 19.9 °F 5.2 °F 12.9 °F 74% 30.34 in 10.0 mi NW 17.3 mph - N/A   Overcast
9:53 PM 19.0 °F 7.5 °F 12.0 °F 74% 30.38 in 9.0 mi NW 10.4 mph - 0.00 in   Overcast
10:53 PM 18.0 °F 4.8 °F 12.0 °F 78% 30.39 in 8.0 mi NNW 12.7 mph - 0.00 in Snow Light Snow
11:53 PM 17.1 °F 6.6 °F 12.9 °F 84% 30.39 in 2.0 mi WNW 8.1 mph - 0.00 in Snow Light Snow